YAOGAN-31 F

Satellite information

Favourite Embed

Satellite Type and Status

PAYLOADIN ORBIT

Key statistics

Satellite YAOGAN-31 F at a glance.

Uptime

1674

Days in orbit

Revolutions

≈ 13.5

Per day

Orbit

LEO

Low Earth Orbit

Inclination

63.4

Latest

Satellite identification and parameters

Extended collection of information and parameters for YAOGAN-31 F.

Object identification

Identified? True

Debris? False

Object name: YAOGAN-31 F

International designator: 2021-007E

Object number (NORAD): 47536

Object ID (CCSDS): 47536

Country: PEOPLES REPUBLIC OF CHINA (PRC)

Current information (Y/N): Y

RCS size: LARGE

Orbital parameters

Period: 107.03 minutes

Inclination: 63.4043 deg

SMA: 7467.313 km

Apoapsis: 1201.204 km

Periapsis: 977.152 km

RAAN: 170.4307 deg

Eccentricy: 0.01500218

Argument of periapsis: 359.5295 deg

Mean anomaly: 0.5567 deg

Mean motion: 13.45414815 rev/day

Mean motion (dot): -0.00000013 rev/day2

B* drag term: 0.0001222346 1/REarth

Two-line elements (TLE)

Creation date: Aug. 30, 2025, 3:38 a.m.

Reference frame: TEME

Reference center: EARTH

Epoch: Aug. 29, 2025, 11:39 p.m. UTC

TLE line 0: 0 YAOGAN-31 F

TLE line 1: 1 47536U 21007E 25241.98584911 -.00000013 00000-0 12223-3 0 9992

TLE line 2: 2 47536 63.4043 170.4307 0150022 359.5295 0.5567 13.45414815225038

Live tracking on map

Real-time ground track for satellite YAOGAN-31 F.

In-orbit conjunctions

There are no conjunctions computed for YAOGAN-31 F, at the moment. Check back to stay up to date, as we update our databases every day.

Go to all conjunctions

Associated space launch

YAOGAN-31 F was lifted into orbit during the mission ‘Long March 4C | Yaogan-31-02’, on board a Long March 4C space rocket.

The launch took place on Jan. 29, 2021, 4:47 a.m. from Launch Area 4 (SLS-2 / 603).

For more information about the launch, click the button.

Launch to space Long March 4C | Yaogan-31-02
Long March 4C | Yaogan-31-02

Agency: N/A

Status: Launch Successful

Launch date: Jan. 29, 2021, 4:47 a.m. UTC

Rocket: Long March 4C

Launch pad: Launch Area 4 (SLS-2 / 603)

Location: Jiuquan Satellite Launch Center, People's Republic of China

...

Latest news about this satellite

News about space launch
Long March 4C lofts three Yaogan Weixing-31 satellites

China launched its second orbital mission in 2021, orbiting three new satellites from the Jiuquan Satellite Launch Center on Friday. The launch took place from Launch Pad 94 of the LC43 launch complex using the Long March-4C (Y31) rocket. The Yaogan Weix...

News about space launch
China launches military spy satellite trio into orbit

China launched three Yaogan military satellites Friday on a Long March 4C rocket, adding to a fleet of spacecraft independent analysts believe are designed to spy on naval forces.


Newsletter sign-up

Weekly statistics, charts and insights to help you stay on top of the space industry.